Location: Hamilton
(37.7830°S, 175.2830°E)
Time: 09:45:55
(UTC+13:00)

H-2A R/B - Pass Details

Date: 24 January 2019
Orbit: 263 x 32957 km, 27.9° (Epoch: 15 February)

Event Time Altitude Azimuth Distance (km) Brightness Sun altitude
Rises 22:05:20 0° 313° (NW) 2,324 4.6 -15.3°
Reaches altitude 10° 22:06:46 10° 328° (NNW) 1,806 3.9 -15.5°
Maximum altitude 22:10:05 29° 32° (NNE) 1,745 3.3 -16.0°
Drops below altitude 10° 22:21:31 10° 85° (E) 6,494 6.3 -17.7°
Sets 22:35:36 0° 91° (E) 11,779 7.7 -19.7°
